sat.trackr.live / text

‹ back to catalog

STARLINK-37011

NORAD 68217 · 2026-053L

PAYLOAD ACTIVE UNKNOWN

§ Identity

Operator
Country
US
Launch date
2026-03-17
Launch site
AFWTR
Launch vehicle
Mass (kg)
RCS (m²)

Purposes: comms

External: N2YO · Heavens-Above · Gunter

§ Orbital elements

Epoch: 2026-05-25T03:14:52.372896Z

Period
93.91 min
Inclination
97.2865°
Eccentricity
0.0001634
Mean motion
15.33457151 rev/d
Perigee alt
464.4 km
Apogee alt
466.6 km
Semi-major
6,843.6 km
B*
4.8677e-4
RAAN
20.5859°
Arg perigee
91.3899°
Mean anomaly
268.7531°
Rev number
1,193

§ Raw data

STARLINK-370111 68217U 26053L   26145.13532839  .00015679  00000+0  48677-3 0  99942 68217  97.2865  20.5859 0001634  91.3899 268.7531 15.33457151 11936

JSON: /api/v1/satellites/68217 · /tle

For live sub-satellite position, see the globe view (requires WebGL).

§ Visibility from observer

Set your observer location to see the next 7 days of passes ≥ 10°. The values pass through the URL so the page stays shareable.

No JS? Fill the form by hand. The geolocation button needs JavaScript.